STARLINK-37701, 69306

Orbit data source: Space-Track

STARLINK-37701, 69306 is a payload satellite owned by SpaceX/Seattle (US) in SSO that was launched on Sat, 30 May 2026 UTC via an FALCON 9 launch vehicle from the Air Force Western Test Range (AFWTR). Payload-class satellites include a variety of spacecraft equipped with specific instruments for various scientific and technological missions. These include communications satellites like Starlink; space stations such as the ISS; scientific satellites like the Hubble; Earth observation satellites from companies like Planet Labs, Umbra, and HawkEye 360; GPS; miniature CubeSats for education and research; and military/defense satellites.

Loading next visibility...
Identifier
69306, 2026-119L
Orbit
SSO
Country
Flag of USUS
Related business
Manufacturer
SpaceX/Seattle
Mission
Operational spacecraft
Bus & Motor
STARLINK V2MO, Unknown motor
Mass
575 kg wet, ~530 kg dry
Launch date (UTC)
2026-05-30 (2 months ago)
Launch vehicle
FALCON 9
Launch site
Air Force Western Test Range (AFWTR)
Object type
Payload
Rocket body
Debris
Shape & HBR
Unknown shape, 17.7 m
Radar Cross Section
Large (>1 m²)

Expand to show TLE details & history
Last TLE update: 16 hours ago

TLE from 16 hours ago
0 STARLINK-37701
1 69306U 26119L   26202.03282471  .00010000  00000-0  31144-3 0  9999
2 69306  97.2849 227.6478 0001473  91.4358 268.7053 15.33467534  9243
Epoch: 2026-07-21T00:47Z
TLE epoch observation values (Epoch: 2026-07-21T00:47:16.054Z)
Latitude
-0.0001°
Longitude
-82.97741°
Altitude
468.611 km
Speed
7.632 km/s
True Right ascension
15h 10m 35s
True Declination
0° 00' 00"
Sunlit
Object was in daylight at epoch
Visualization orbit readout
Latitude
Unknown
Longitude
Unknown
Altitude
Unknown
Speed
Unknown
Apparent Right ascension
Unknown
Apparent Declination
Unknown
Sunlit
N/A
Visualization observer readout
Local Sidereal Time
05:24:08
Azimuth
Unknown
Elevation
Unknown
Doppler factor
Unknown
Orbital elements
Apogee altitude
463.426 km
Perigee altitude
461.411 km
Semi-major axis
6,840.556 km
Eccentricity
0.00015
Inclination
97.2849°
RAAN
227.6478°
Arg. of periapsis
91.4358°
True anomaly
268.68843°
Mean anomaly
268.7053°
Eccentric anomaly
268.69686°
Mean motion
3.83624 °/min
Orbital period
93.84 mins
BSTAR
0.00031144
Loading maneuver chart data...
Computing Atmospheric mass density...
Loading historical data...
Loading historical data...
Loading historical data...
Loading historical data...
Loading historical data...
Loading historical data...
Loading historical data...

Documentation

Showing up to 5 results
|